[[{"header":{"parameterUnit":"m.s-1","parameterCategory":2,"la1":30.2991,"la2":30.254,"lo1":-89.0895,"lo2":-89.0444,"dx":0.0017,"dy":0.0017,"nx":28,"ny":28,"refTime":"2022-12-03T09:00:00:Z","depth":"0","parameterNumber":2,"parameterNumberName":"U-component_of_CURRENTS"},"data":[0,0,0,0,0,0,0,0,0,0,0,0,0,0,0,0,0,0,0,0,0,0,0,0,0,0,0,0,0,0,0,0,0,0,0,0,0,0,0,0,0,0,0,0,0,0,0,0,0,0,0,0,0,0,0,0,0,0,0.3749,0.3748,0,0.3623,0.3621,0.362,0.3581,0.3582,0.3583,0.3584,0.3495,0.3492,0.3489,0,0,0,0,0,0,0,0,0,0,0,0,0,0.3933,0.393,0.3749,0.3748,0.3746,0.3623,0.3621,0.3619,0.3581,0.3582,0.3583,0.3584,0.3496,0.3492,0.3488,0,0,0,0,0,0,0,0,0,0,0,0,0,0.3834,0.3929,0.3749,0.3713,0.3709,0.3624,0.3621,0.3619,0.3581,0.3582,0.3583,0.3584,0.3497,0.3492,0.3488,0.3437,0,0,0.3474,0.3472,0,0,0,0,0,0,0,0,0.3839,0.3827,0.372,0.3716,0.3711,0.362,0.3654,0.3561,0.3581,0.3628,0.3584,0.3585,0.354,0.3532,0.3503,0.3433,0.3429,0.3473,0.3471,0.3469,0.3467,0,0,0,0,0,0,0,0.3846,0.3832,0.3698,0.3718,0.3713,0.3695,0.3682,0.3635,0.3579,0.3624,0.3621,0.3609,0.3538,0.3508,0.3501,0.3428,0.3474,0.3469,0.3467,0.3465,0.3303,0.3301,0,0,0,0,0,0,0.3864,0.3838,0.3702,0.3694,0.378,0.3691,0.3677,0.3647,0.3579,0.3569,0.3608,0.3608,0.3515,0.3507,0.3498,0.3417,0.3469,0.3464,0.3462,0.3304,0.3302,0.3301,0,0,0,0,0,0,0.3868,0.3852,0.3707,0.3766,0.3746,0.3687,0.3654,0.3644,0.3612,0.3566,0.3558,0.3587,0.3516,0.3504,0.3446,0.3415,0.3462,0.3458,0.3306,0.3304,0.3301,0.3267,0,0,0,0,0,0,0.3873,0.3854,0.3835,0.3766,0.3744,0.3653,0.3653,0.3641,0.3604,0.3602,0.3545,0.3538,0.3516,0.3453,0.3442,0.3409,0.3455,0.3308,0.3305,0.3302,0.327,0.3264,0.3259,0,0,0,0,0,0.388,0.3852,0.3834,0.3818,0.372,0.3652,0.3638,0.36,0.3602,0.3578,0.3541,0.354,0.3427,0.3448,0.3435,0.34,0.3309,0.3306,0.3302,0.3273,0.3265,0.3259,0,0,0,0,0,0,0.3924,0.3843,0.3823,0.3772,0.3716,0.3646,0.3621,0.3596,0.3545,0.3549,0.3513,0.3501,0.3439,0.3423,0.3447,0.3346,0.3371,0.3364,0.3353,0.3345,0.3339,0.3365,0.3451,0,0,0,0,0,0.3924,0.3878,0.3806,0.3765,0.374,0.368,0.3648,0.3621,0.357,0.3548,0.3504,0.3462,0.3411,0.3384,0.3339,0.3279,0.3354,0.3251,0.3245,0.324,0.3252,0.3302,0.3303,0.3289,0.3289,0.3289,0,0,0.393,0.388,0.3854,0.3771,0.3728,0.3669,0.3663,0.3614,0.3561,0.3547,0.3467,0.3437,0.3391,0.3322,0.3294,0.3307,0.3299,0.3236,0.3232,0.3247,0.3298,0.33,0.3302,0.3287,0.3287,0.3288,0,0,0.3914,0.3875,0.3829,0.3779,0.3711,0.3669,0.3655,0.3579,0.3544,0.3469,0.3444,0.3404,0.3316,0.328,0.3251,0.3187,0.3265,0.3165,0.3153,0.32,0.3202,0.3205,0.3382,0.3401,0.3163,0.3162,0.3162,0,0.3931,0.3852,0.3808,0.375,0.3707,0.3668,0.3611,0.3559,0.3472,0.3442,0.3445,0.3335,0.3299,0.3224,0.3199,0.3175,0.326,0.3183,0.3196,0.32,0.3204,0.3383,0.3404,0.316,0.3161,0.3161,0.3161,0,0.3874,0.3811,0.3784,0.3692,0.3642,0.3592,0.352,0.3471,0.3437,0.3392,0.3322,0.3279,0.3229,0.3195,0.3173,0.3155,0.3234,0.3187,0.3224,0.3204,0.3394,0.3417,0.3157,0.3158,0.3159,0.3159,0,0,0.3906,0.377,0.3759,0.3704,0.361,0.3561,0.3483,0.34,0.3365,0.3301,0.3261,0.3173,0.3184,0.3154,0.3127,0.3151,0.3269,0.3179,0.3182,0.3375,0.3483,0.3402,0.3421,0.322,0.3222,0.3223,0.3637,0,0.3874,0.377,0.37,0.3596,0.354,0.3476,0.3406,0.3336,0.3294,0.3249,0.3219,0.3177,0.3156,0.315,0.3165,0.3217,0.3314,0.3169,0.3455,0.3467,0.341,0.3435,0.3212,0.3545,0.366,0.3664,0.3666,0,0.3835,0.377,0.3672,0.3548,0.3518,0.3461,0.3373,0.3299,0.3238,0.3215,0.319,0.3178,0.3192,0.3183,0.3336,0.3247,0.3381,0.3448,0.3464,0.3409,0.3422,0.3564,0.3583,0.3429,0.3702,0.3699,0.3697,0,0.3883,0.3743,0.3668,0.3624,0.3489,0.3447,0.3386,0.3309,0.3253,0.322,0.3224,0.3223,0.3265,0.3365,0.3503,0.3435,0.3724,0.3651,0.3744,0.3748,0.3623,0.3608,0.353,0.3818,0.3817,0.3816,0.3815,0,0.3866,0.38,0.3692,0.3652,0.3574,0.3479,0.3409,0.3351,0.3291,0.3254,0.3232,0.3254,0.3306,0.3449,0.3567,0.3747,0.3805,0.3777,0.382,0.361,0.3589,0.3498,0.3458,0.3832,0.3828,0.3825,0.3822,0,0.3894,0.3822,0.374,0.3628,0.359,0.3544,0.3426,0.3377,0.3337,0.3307,0.3308,0.3329,0.3494,0.3616,0.3831,0.3848,0.3898,0.4091,0.3901,0.3905,0.3705,0.3673,0.3639,0.3566,0.422,0.422,0.422,0,0.3878,0.3842,0.3752,0.3714,0.3658,0.3577,0.3515,0.3419,0.3378,0.3363,0.3369,0.3498,0.3586,0.388,0.3912,0.4134,0.4008,0.4053,0.381,0.3678,0.3678,0.3544,0.3476,0.3719,0.3715,0.3711,0.3709,0,0.3851,0.3843,0.3789,0.374,0.3679,0.3589,0.3515,0.3486,0.3391,0.3401,0.3457,0.3533,0.3718,0.3743,0.3943,0.4024,0.3763,0.3985,0.3862,0.3281,0.3121,0.3076,0.3577,0.3678,0.3681,0.3684,0.3685,0.3686,0.3847,0.3825,0.3783,0.3733,0.3668,0.3598,0.3541,0.3494,0.345,0.3435,0.3524,0.3585,0.3559,0.3734,0.3817,0.3597,0.364,0.342,0.3427,0.3333,0.3085,0.3563,0.3652,0.3654,0.3657,0.3659,0.3661,0,0.3819,0.3797,0.3758,0.3692,0.3634,0.3604,0.3515,0.3465,0.3446,0.3466,0.3529,0.341,0.3383,0.3344,0.3135,0.3026,0.2921,0.2925,0.2656,0.2646,0.3087,0.2871,0.2769,0.2769,0.2769,0.2769,0.2769,0.277,0.3801,0.3764,0.3753,0.3663,0.3618,0.3519,0.3475,0.3438,0.342,0.3322,0.3208,0.3189,0.2982,0.2789,0.257,0.2537,0.2372,0.2238,0.2331,0.2573,0.2617,0.2658,0.2437,0.2245,0.2245,0.1711,0.1706,0.1703]},{"header":{"parameterUnit":"m.s-1","parameterCategory":2,"la1":30.2991,"la2":30.254,"lo1":-89.0895,"lo2":-89.0444,"dx":0.0017,"dy":0.0017,"nx":28,"ny":28,"refTime":"2022-12-03T09:00:00:Z","depth":"0","parameterNumber":3,"parameterNumberName":"V-component_of_CURRENTS"},"data":[0,0,0,0,0,0,0,0,0,0,0,0,0,0,0,0,0,0,0,0,0,0,0,0,0,0,0,0,0,0,0,0,0,0,0,0,0,0,0,0,0,0,0,0,0,0,0,0,0,0,0,0,0,0,0,0,0,0,-0.165,-0.165,0,-0.1601,-0.1601,-0.16,-0.156,-0.1559,-0.1559,-0.1558,-0.1525,-0.1525,-0.1525,0,0,0,0,0,0,0,0,0,0,0,0,0,-0.1644,-0.1645,-0.165,-0.1649,-0.1649,-0.1601,-0.1601,-0.16,-0.156,-0.1559,-0.1559,-0.1558,-0.1526,-0.1525,-0.1524,0,0,0,0,0,0,0,0,0,0,0,0,0,-0.1627,-0.1645,-0.165,-0.1623,-0.162,-0.1601,-0.1601,-0.16,-0.156,-0.1559,-0.1559,-0.1558,-0.1526,-0.1525,-0.1524,-0.1534,0,0,-0.1522,-0.1522,0,0,0,0,0,0,0,0,-0.1628,-0.1627,-0.1627,-0.1625,-0.1621,-0.1585,-0.1586,-0.1579,-0.156,-0.1583,-0.1558,-0.1558,-0.1547,-0.1545,-0.1538,-0.1533,-0.1531,-0.1522,-0.1522,-0.1522,-0.1521,0,0,0,0,0,0,0,-0.1629,-0.1628,-0.1631,-0.1627,-0.1623,-0.159,-0.1588,-0.1584,-0.157,-0.1581,-0.1578,-0.1572,-0.1546,-0.1538,-0.1536,-0.1531,-0.1522,-0.1522,-0.1521,-0.1521,-0.1516,-0.1516,0,0,0,0,0,0,-0.1639,-0.163,-0.1633,-0.163,-0.1622,-0.1591,-0.1588,-0.1598,-0.157,-0.1565,-0.1573,-0.157,-0.154,-0.1537,-0.1535,-0.1528,-0.1522,-0.1521,-0.1521,-0.1515,-0.1516,-0.1516,0,0,0,0,0,0,-0.1639,-0.164,-0.1635,-0.1627,-0.1624,-0.1593,-0.1603,-0.1597,-0.159,-0.1563,-0.1558,-0.1571,-0.1539,-0.1536,-0.1533,-0.1527,-0.1521,-0.152,-0.1515,-0.1516,-0.1516,-0.1524,0,0,0,0,0,0,-0.1639,-0.1641,-0.1649,-0.1629,-0.1625,-0.1633,-0.1604,-0.1597,-0.1587,-0.1583,-0.156,-0.1556,-0.1538,-0.1534,-0.1532,-0.1526,-0.152,-0.1515,-0.1515,-0.1516,-0.1523,-0.1525,-0.1526,0,0,0,0,0,-0.1639,-0.166,-0.165,-0.165,-0.1638,-0.1633,-0.1629,-0.1603,-0.1588,-0.1592,-0.1572,-0.1557,-0.1535,-0.1534,-0.1532,-0.1525,-0.1515,-0.1515,-0.1516,-0.1523,-0.1524,-0.1526,0,0,0,0,0,0,-0.1656,-0.1657,-0.1646,-0.1663,-0.1651,-0.1627,-0.1628,-0.1609,-0.1596,-0.1594,-0.1564,-0.156,-0.1553,-0.1544,-0.1543,-0.1526,-0.1521,-0.1521,-0.1527,-0.1529,-0.153,-0.1501,-0.1519,0,0,0,0,0,-0.1665,-0.1684,-0.167,-0.1682,-0.1681,-0.1655,-0.1648,-0.1634,-0.1618,-0.1611,-0.1589,-0.157,-0.1554,-0.1546,-0.1536,-0.1532,-0.1459,-0.1526,-0.1527,-0.1528,-0.1504,-0.1406,-0.1395,-0.1518,-0.1518,-0.1518,0,0,-0.167,-0.1676,-0.1682,-0.1687,-0.1676,-0.1673,-0.165,-0.165,-0.1635,-0.1612,-0.1591,-0.1577,-0.1556,-0.1544,-0.154,-0.1535,-0.145,-0.1528,-0.1529,-0.1504,-0.1405,-0.1392,-0.1381,-0.1518,-0.1518,-0.1518,0,0,-0.1691,-0.17,-0.1719,-0.1715,-0.171,-0.1695,-0.1697,-0.1677,-0.1657,-0.1644,-0.1616,-0.1595,-0.1581,-0.1549,-0.1535,-0.1539,-0.1462,-0.1545,-0.1522,-0.1428,-0.1416,-0.1405,-0.1268,-0.1244,-0.1542,-0.1542,-0.1542,0,-0.1694,-0.1717,-0.172,-0.1733,-0.1724,-0.1706,-0.1707,-0.1689,-0.1664,-0.1635,-0.1642,-0.1572,-0.1574,-0.1519,-0.1528,-0.1537,-0.1454,-0.1519,-0.1426,-0.1413,-0.1401,-0.1264,-0.1237,-0.1542,-0.1542,-0.1542,-0.1542,0,-0.1723,-0.1735,-0.1748,-0.1755,-0.1748,-0.1754,-0.1728,-0.1713,-0.1689,-0.165,-0.1595,-0.1576,-0.152,-0.1532,-0.1536,-0.1456,-0.1412,-0.1439,-0.1415,-0.1388,-0.1246,-0.1218,-0.1543,-0.1543,-0.1543,-0.1543,0,0,-0.1743,-0.1763,-0.1766,-0.1762,-0.1761,-0.1754,-0.1736,-0.1694,-0.1644,-0.1619,-0.1527,-0.1528,-0.1488,-0.1468,-0.1455,-0.1392,-0.1255,-0.1384,-0.1379,-0.1233,-0.0994,-0.0914,-0.0876,-0.126,-0.1256,-0.1253,-0.0917,0,-0.1759,-0.1781,-0.1785,-0.1784,-0.1786,-0.1763,-0.1733,-0.1691,-0.1638,-0.1546,-0.1495,-0.1417,-0.1469,-0.1424,-0.1372,-0.1266,-0.1187,-0.134,-0.1054,-0.1044,-0.0965,-0.0844,-0.0845,-0.0543,-0.089,-0.0885,-0.0882,0,-0.1783,-0.1793,-0.1798,-0.178,-0.1776,-0.1768,-0.1696,-0.1663,-0.1546,-0.1495,-0.1403,-0.1334,-0.1213,-0.1275,-0.1058,-0.1145,-0.1075,-0.1009,-0.0995,-0.0894,-0.0912,-0.0633,-0.0479,-0.0626,-0.0839,-0.0842,-0.0845,0,-0.1784,-0.1799,-0.1798,-0.1796,-0.1773,-0.1758,-0.1734,-0.1645,-0.1573,-0.1431,-0.1325,-0.1198,-0.1062,-0.0976,-0.0832,-0.0931,-0.0563,-0.0682,-0.0536,-0.0528,-0.0457,-0.0449,-0.0398,-0.054,-0.0541,-0.0542,-0.0543,0,-0.1796,-0.1792,-0.18,-0.1797,-0.1767,-0.1755,-0.1686,-0.1636,-0.1506,-0.1355,-0.1284,-0.1093,-0.0981,-0.076,-0.0719,-0.0471,-0.0456,-0.0469,-0.0422,-0.0459,-0.0456,-0.0526,-0.0632,-0.0529,-0.0532,-0.0534,-0.0536,0,-0.1777,-0.1792,-0.1786,-0.1776,-0.1767,-0.1741,-0.1664,-0.1585,-0.1478,-0.1261,-0.1191,-0.0936,-0.0617,-0.0475,-0.024,-0.0262,-0.0116,-0.0033,-0.0051,-0.0015,-0.0097,-0.0201,0.0032,-0.0009,0.0175,0.018,0.0183,0,-0.1758,-0.1759,-0.176,-0.1742,-0.1736,-0.17,-0.1647,-0.1574,-0.1464,-0.1134,-0.0992,-0.0625,-0.0302,0.0103,0.017,0.0354,0.0159,0.0358,0.0122,-0.0035,-0.0118,-0.0182,-0.0244,0.0233,0.0237,0.024,0.0242,0,-0.1706,-0.1716,-0.1702,-0.1678,-0.1646,-0.1594,-0.1513,-0.1419,-0.125,-0.101,-0.0605,-0.0307,0.0111,0.0397,0.0594,0.0603,0.0251,0.0421,0.0262,-0.0039,-0.0101,-0.0142,-0.0038,0.0269,0.0266,0.0264,0.0263,0.0262,-0.1641,-0.1626,-0.1615,-0.158,-0.1539,-0.1448,-0.1353,-0.1191,-0.0938,-0.0459,-0.0274,0.0329,0.0501,0.083,0.0762,0.0567,0.053,0.0412,0.0322,0.0291,0.0169,0.0361,0.0692,0.0691,0.0691,0.0691,0.0691,0,-0.1548,-0.1538,-0.1508,-0.1451,-0.1365,-0.1379,-0.1212,-0.1032,-0.0661,-0.0103,0.0344,0.0936,0.1015,0.0976,0.0721,0.0485,0.0316,0.0324,0.0156,0.0109,0.03,0.0207,0.0442,0.0443,0.0443,0.0443,0.0443,0.0443,-0.1491,-0.1449,-0.1443,-0.129,-0.1233,-0.1063,-0.0945,-0.063,-0.0217,0.0616,0.1222,0.1637,0.1652,0.0909,0.0415,0.0257,0.0004,0.0032,-0.0073,-0.0082,-0.0086,-0.009,-0.0206,-0.006,-0.006,-0.0268,-0.0271,-0.0272]}],[{"header":{"parameterUnit":"m.s-1","parameterCategory":2,"la1":30.2991,"la2":30.254,"lo1":-89.0895,"lo2":-89.0444,"dx":0.0017,"dy":0.0017,"nx":28,"ny":28,"refTime":"2022-12-03T09:00:00:Z","depth":"2","parameterNumber":2,"parameterNumberName":"U-component_of_CURRENTS"},"data":[0,0,0,0,0,0,0,0,0,0,0,0,0,0,0,0,0,0,0,0,0,0,0,0,0,0,0,0,0,0,0,0,0,0,0,0,0,0,0,0,0,0,0,0,0,0,0,0,0,0,0,0,0,0,0,0,0,0,0.2435,0.2436,0,0.2489,0.249,0.249,0.2528,0.2528,0.2528,0.2529,0.2587,0.2588,0.259,0,0,0,0,0,0,0,0,0,0,0,0,0,0.2376,0.2377,0.2435,0.2436,0.2436,0.2489,0.249,0.2491,0.2527,0.2528,0.2528,0.2529,0.2587,0.2588,0.259,0,0,0,0,0,0,0,0,0,0,0,0,0,0.2412,0.2377,0.2435,0.2462,0.2465,0.2489,0.249,0.2491,0.2527,0.2528,0.2529,0.2529,0.2586,0.2588,0.259,0.2589,0,0,0.2595,0.2596,0,0,0,0,0,0,0,0,0.241,0.2414,0.2457,0.246,0.2464,0.2504,0.2491,0.2524,0.2527,0.2502,0.2529,0.2529,0.256,0.2564,0.2571,0.2592,0.2594,0.2596,0.2597,0.2597,0.2598,0,0,0,0,0,0,0,0.2407,0.2412,0.2455,0.2458,0.2462,0.2477,0.2482,0.2497,0.2526,0.2505,0.2508,0.2516,0.2562,0.2569,0.2573,0.2595,0.2596,0.2597,0.2598,0.2599,0.2696,0.2698,0,0,0,0,0,0,0.2402,0.2409,0.2453,0.2457,0.2439,0.2477,0.2483,0.2489,0.2526,0.2533,0.2515,0.2517,0.2566,0.2571,0.2575,0.261,0.2597,0.2599,0.26,0.2695,0.2697,0.2698,0,0,0,0,0,0,0.24,0.2405,0.2451,0.2435,0.2443,0.2478,0.2484,0.249,0.2514,0.2534,0.2541,0.2535,0.2566,0.2572,0.2608,0.2611,0.26,0.2601,0.2693,0.2696,0.2698,0.2659,0,0,0,0,0,0,0.2398,0.2404,0.2412,0.2435,0.2443,0.2468,0.2484,0.2491,0.2517,0.2521,0.2553,0.2558,0.2567,0.2605,0.261,0.2614,0.2603,0.2691,0.2694,0.2697,0.2658,0.2659,0.2661,0,0,0,0,0,0.2396,0.2397,0.2412,0.2418,0.2451,0.2468,0.2474,0.25,0.2518,0.2524,0.2557,0.2558,0.2627,0.2608,0.2613,0.2617,0.269,0.2693,0.2697,0.2658,0.2659,0.2661,0,0,0,0,0,0,0.2362,0.2402,0.2418,0.2429,0.2451,0.2475,0.2485,0.2507,0.2538,0.2547,0.257,0.2577,0.2614,0.2629,0.2607,0.266,0.2662,0.2666,0.263,0.2632,0.2633,0.2657,0.2604,0,0,0,0,0,0.2362,0.2383,0.2412,0.2421,0.2432,0.2463,0.2478,0.2497,0.2524,0.2539,0.2563,0.2598,0.2629,0.2641,0.2671,0.269,0.275,0.2703,0.2704,0.2704,0.2731,0.282,0.2831,0.271,0.271,0.271,0,0,0.2353,0.2376,0.2389,0.2418,0.2437,0.246,0.2473,0.2494,0.2522,0.254,0.2582,0.2603,0.264,0.2667,0.2684,0.2678,0.2773,0.2709,0.2708,0.2736,0.2825,0.2836,0.2847,0.2712,0.2712,0.2711,0,0,0.2346,0.2364,0.2385,0.2404,0.2438,0.2458,0.2468,0.2501,0.2525,0.2561,0.2589,0.2626,0.2659,0.2691,0.271,0.2743,0.2782,0.2741,0.2753,0.2837,0.2848,0.2858,0.2952,0.2971,0.2733,0.2733,0.2733,0,0.234,0.2367,0.2389,0.2411,0.2434,0.2461,0.2485,0.2509,0.2552,0.2579,0.2576,0.2659,0.268,0.2733,0.274,0.2745,0.2801,0.2732,0.2838,0.2849,0.286,0.2954,0.2976,0.2731,0.2731,0.2732,0.2732,0,0.2349,0.2378,0.2385,0.2432,0.2452,0.2474,0.251,0.2536,0.2566,0.2597,0.2654,0.2683,0.2739,0.2738,0.2745,0.2824,0.2842,0.283,0.2826,0.287,0.2967,0.299,0.2729,0.273,0.273,0.273,0,0,0.233,0.2388,0.2397,0.2426,0.2469,0.2488,0.2528,0.258,0.262,0.2651,0.2714,0.2752,0.2772,0.28,0.2808,0.2865,0.298,0.2873,0.2878,0.2955,0.3181,0.2823,0.2815,0.2974,0.2978,0.2981,0.3217,0,0.2342,0.2398,0.2418,0.2468,0.25,0.253,0.2562,0.2609,0.2651,0.2713,0.2755,0.2814,0.2793,0.2818,0.2873,0.2966,0.3039,0.2919,0.314,0.3148,0.2813,0.2827,0.2657,0.2818,0.324,0.3243,0.3246,0,0.2347,0.2395,0.2448,0.2505,0.2519,0.2544,0.2612,0.2646,0.2725,0.2759,0.282,0.286,0.2961,0.2928,0.3117,0.3039,0.3119,0.3177,0.3188,0.2886,0.283,0.2846,0.2844,0.3285,0.3282,0.3279,0.3276,0,0.2331,0.2409,0.2458,0.2478,0.2542,0.2568,0.2603,0.2667,0.2702,0.2807,0.2846,0.2959,0.3018,0.3146,0.3204,0.3207,0.3384,0.3417,0.3184,0.3164,0.3077,0.3036,0.3568,0.3568,0.3567,0.3567,0.3566,0,0.2317,0.2364,0.2461,0.2479,0.2538,0.2577,0.2628,0.2672,0.2746,0.2766,0.2873,0.2894,0.3071,0.3151,0.3252,0.3229,0.3431,0.3193,0.3185,0.305,0.3006,0.3455,0.3439,0.3575,0.3573,0.3572,0.357,0,0.2268,0.2335,0.2398,0.2489,0.2522,0.256,0.2629,0.2662,0.2733,0.277,0.2806,0.2907,0.2983,0.3097,0.3288,0.3229,0.3295,0.3238,0.3036,0.2989,0.3049,0.3029,0.31,0.3089,0.3079,0.3071,0.3065,0,0.2257,0.2292,0.239,0.2443,0.2484,0.2554,0.2585,0.265,0.2653,0.2725,0.2716,0.281,0.2797,0.2894,0.2875,0.2957,0.3082,0.2747,0.2679,0.3008,0.2997,0.2991,0.2983,0.2629,0.2619,0.2611,0.2605,0,0.2268,0.2297,0.2344,0.241,0.2467,0.2494,0.2525,0.2509,0.2537,0.2559,0.2524,0.2542,0.2574,0.2499,0.2482,0.2499,0.271,0.2572,0.3051,0.2656,0.2549,0.254,0.2554,0.2535,0.2542,0.2547,0.2551,0.2554,0.2296,0.2311,0.2359,0.2388,0.245,0.2393,0.2348,0.2325,0.2273,0.2208,0.2275,0.2236,0.2263,0.2137,0.2073,0.2023,0.2221,0.2175,0.221,0.2252,0.2036,0.1904,0.1738,0.174,0.1742,0.1744,0.1746,0,0.2314,0.2325,0.2352,0.2347,0.2315,0.2373,0.2284,0.2164,0.2013,0.1993,0.1941,0.1768,0.1714,0.178,0.1616,0.1534,0.1655,0.1455,0.1674,0.174,0.18,0.1572,0.1147,0.1145,0.1143,0.1142,0,0,0.2343,0.2324,0.2266,0.2195,0.2211,0.2101,0.2017,0.1823,0.1729,0.1556,0.1528,0.1646,0.172,0.1441,0.1367,0.1247,0.1494,0.118,0.1663,0.199,0.2048,0.2207,0.1922,0,0,0,0,0]},{"header":{"parameterUnit":"m.s-1","parameterCategory":2,"la1":30.2991,"la2":30.254,"lo1":-89.0895,"lo2":-89.0444,"dx":0.0017,"dy":0.0017,"nx":28,"ny":28,"refTime":"2022-12-03T09:00:00:Z","depth":"2","parameterNumber":3,"parameterNumberName":"V-component_of_CURRENTS"},"data":[0,0,0,0,0,0,0,0,0,0,0,0,0,0,0,0,0,0,0,0,0,0,0,0,0,0,0,0,0,0,0,0,0,0,0,0,0,0,0,0,0,0,0,0,0,0,0,0,0,0,0,0,0,0,0,0,0,0,0.0722,0.0722,0,0.0683,0.0683,0.0683,0.0609,0.0607,0.0606,0.0605,0.0476,0.0473,0.0471,0,0,0,0,0,0,0,0,0,0,0,0,0,0.073,0.073,0.0723,0.0722,0.0722,0.0684,0.0683,0.0682,0.0609,0.0607,0.0606,0.0604,0.0476,0.0474,0.0471,0,0,0,0,0,0,0,0,0,0,0,0,0,0.0713,0.073,0.0723,0.068,0.0676,0.0684,0.0683,0.0682,0.0609,0.0607,0.0605,0.0603,0.0477,0.0474,0.0471,0.0494,0,0,0.0461,0.046,0,0,0,0,0,0,0,0,0.0714,0.0712,0.0687,0.0683,0.0679,0.0649,0.0638,0.0615,0.061,0.0635,0.0605,0.0602,0.0527,0.052,0.0518,0.0488,0.0482,0.0461,0.0459,0.0458,0.0457,0,0,0,0,0,0,0,0.0715,0.0714,0.0707,0.0687,0.0682,0.0662,0.0657,0.0634,0.0591,0.0632,0.0627,0.0623,0.0524,0.0521,0.0514,0.048,0.0461,0.0458,0.0456,0.0455,0.0421,0.0422,0,0,0,0,0,0,0.0723,0.0715,0.0708,0.0706,0.0691,0.0664,0.0658,0.0661,0.0593,0.0582,0.0625,0.062,0.0528,0.0518,0.0509,0.0482,0.0458,0.0455,0.0453,0.042,0.0421,0.0422,0,0,0,0,0,0,0.0723,0.0723,0.071,0.0709,0.0706,0.0666,0.0669,0.0661,0.0633,0.0589,0.0575,0.0603,0.0526,0.0514,0.0486,0.0478,0.0453,0.045,0.0419,0.042,0.0421,0.046,0,0,0,0,0,0,0.0724,0.0724,0.0718,0.071,0.0706,0.0705,0.0671,0.0662,0.0636,0.0628,0.0566,0.0554,0.0523,0.0491,0.0483,0.0473,0.0448,0.0417,0.0419,0.0421,0.0458,0.0463,0.0467,0,0,0,0,0,0.0724,0.0728,0.0719,0.0717,0.0704,0.0706,0.0702,0.0666,0.0637,0.0632,0.0597,0.0554,0.0496,0.049,0.0479,0.0469,0.0416,0.0419,0.0421,0.0456,0.0462,0.0467,0,0,0,0,0,0,0.0724,0.0721,0.071,0.071,0.0705,0.0693,0.0677,0.0662,0.0633,0.061,0.0569,0.0555,0.053,0.0503,0.0497,0.0468,0.0449,0.0449,0.0479,0.0484,0.0489,0.0498,0.0445,0,0,0,0,0,0.0726,0.0725,0.0723,0.072,0.0714,0.0695,0.0685,0.0667,0.0646,0.0628,0.0591,0.0555,0.0539,0.0512,0.0493,0.0475,0.047,0.0464,0.0469,0.0473,0.0476,0.0472,0.0476,0.0429,0.0429,0.0429,0,0,0.0725,0.0721,0.0719,0.0719,0.0703,0.0706,0.0682,0.0665,0.0666,0.062,0.0594,0.057,0.0542,0.0526,0.0511,0.0494,0.0488,0.0475,0.0479,0.048,0.0475,0.0479,0.0483,0.0431,0.043,0.043,0,0,0.0728,0.0716,0.0717,0.0714,0.0698,0.0696,0.0691,0.0675,0.066,0.065,0.0621,0.0603,0.056,0.0551,0.0539,0.0562,0.0521,0.054,0.0558,0.0554,0.0557,0.056,0.0579,0.0583,0.0533,0.0533,0.0534,0,0.0717,0.0731,0.0718,0.0717,0.0715,0.0693,0.0699,0.0693,0.0671,0.0673,0.064,0.0613,0.0579,0.0584,0.0584,0.0571,0.0563,0.0535,0.0559,0.0562,0.0564,0.0582,0.0587,0.0536,0.0535,0.0535,0.0535,0,0.0739,0.0732,0.0729,0.0727,0.0726,0.0724,0.0721,0.0719,0.0697,0.0693,0.0687,0.0658,0.0641,0.0627,0.0602,0.0606,0.0596,0.0572,0.0542,0.0571,0.0589,0.0593,0.0539,0.0538,0.0537,0.0537,0,0,0.0754,0.0746,0.0739,0.0748,0.0731,0.0744,0.0744,0.0761,0.0779,0.0742,0.077,0.0727,0.0703,0.0691,0.0663,0.0648,0.0659,0.0606,0.0605,0.0622,0.0658,0.0536,0.0528,0.0624,0.0625,0.0625,0.0671,0,0.077,0.0792,0.0771,0.0786,0.0809,0.0785,0.0802,0.0807,0.0805,0.0828,0.0798,0.0804,0.0731,0.0728,0.0698,0.0686,0.0666,0.0649,0.063,0.0631,0.0514,0.0527,0.0498,0.0524,0.0674,0.0675,0.0675,0,0.0812,0.0823,0.0844,0.0857,0.0858,0.0842,0.088,0.0892,0.091,0.0915,0.0899,0.0881,0.0872,0.0802,0.0767,0.0753,0.0698,0.0674,0.0675,0.0546,0.0513,0.0516,0.0524,0.0681,0.068,0.068,0.068,0,0.0906,0.0881,0.0906,0.0904,0.0908,0.0892,0.0884,0.0902,0.0956,0.0963,0.1019,0.097,0.1,0.0906,0.0834,0.0798,0.0803,0.0756,0.0599,0.0592,0.0556,0.0542,0.0712,0.0712,0.0712,0.0712,0.0712,0,0.0989,0.0996,0.0928,0.0959,0.0966,0.0937,0.0971,0.0972,0.1022,0.1125,0.1055,0.114,0.1023,0.1011,0.0888,0.0762,0.0842,0.0604,0.0585,0.0569,0.0557,0.0677,0.0672,0.0714,0.0713,0.0713,0.0713,0,0.1105,0.1068,0.1092,0.1053,0.102,0.1026,0.1023,0.1094,0.1109,0.125,0.1269,0.13,0.1249,0.1125,0.1024,0.0863,0.0738,0.0669,0.066,0.0634,0.0519,0.0516,0.0492,0.0488,0.0485,0.0482,0.0479,0,0.1163,0.1185,0.1158,0.1156,0.1112,0.1097,0.1128,0.1135,0.1248,0.1366,0.1486,0.1457,0.1439,0.1221,0.0941,0.0687,0.0706,0.0501,0.0389,0.0507,0.0493,0.0495,0.0497,0.0393,0.039,0.0387,0.0385,0,0.1249,0.1229,0.1257,0.1271,0.1263,0.13,0.1338,0.1436,0.152,0.1606,0.1721,0.1677,0.145,0.1147,0.0778,0.0606,0.0518,0.0434,0.0602,0.0414,0.0405,0.0393,0.04,0.0364,0.0366,0.0367,0.0369,0.037,0.1277,0.1306,0.1337,0.1353,0.1382,0.1471,0.1537,0.1614,0.1732,0.1835,0.1845,0.1727,0.1444,0.0868,0.0606,0.0317,0.0323,0.0212,0.0224,0.0238,0.0179,0.0159,0.0065,0.0065,0.0066,0.0066,0.0066,0,0.1288,0.1331,0.1397,0.144,0.1523,0.1501,0.1677,0.1734,0.1836,0.1856,0.184,0.1489,0.114,0.084,0.035,0.0063,0.0089,0.0009,0.011,0.013,0.0148,0.0089,-0.0051,-0.0051,-0.0052,-0.0052,0,0,0.1286,0.136,0.1423,0.1538,0.1561,0.1676,0.1772,0.1803,0.1842,0.1758,0.1647,0.1525,0.1154,0.0794,0.0444,0.0192,0.0232,0.0146,0.0255,0.043,0.0453,0.0261,0.019,0,0,0,0,0]}],[{"header":{"parameterUnit":"m.s-1","parameterCategory":2,"la1":30.2991,"la2":30.254,"lo1":-89.0895,"lo2":-89.0444,"dx":0.0017,"dy":0.0017,"nx":28,"ny":28,"refTime":"2022-12-03T09:00:00:Z","depth":"4","parameterNumber":2,"parameterNumberName":"U-component_of_CURRENTS"},"data":[0,0,0,0,0,0,0,0,0,0,0,0,0,0,0,0,0,0,0,0,0,0,0,0,0,0,0,0,0,0,0,0,0,0,0,0,0,0,0,0,0,0,0,0,0,0,0,0,0,0,0,0,0,0,0,0,0,0,-0.0066,-0.0066,0,-0.0059,-0.0058,-0.0058,-0.0061,-0.0061,-0.0061,-0.0061,0.0034,0.0036,0.0039,0,0,0,0,0,0,0,0,0,0,0,0,0,-0.0111,-0.011,-0.0066,-0.0066,-0.0066,-0.0059,-0.0058,-0.0058,-0.0061,-0.0061,-0.0061,-0.0062,0.0033,0.0036,0.0039,0,0,0,0,0,0,0,0,0,0,0,0,0,-0.0096,-0.0109,-0.0066,-0.0066,-0.0066,-0.0059,-0.0058,-0.0058,-0.0061,-0.0061,-0.0061,-0.0062,0.0032,0.0036,0.004,0.0071,0,0,0.0052,0.0054,0,0,0,0,0,0,0,0,-0.0097,-0.0094,-0.0066,-0.0066,-0.0066,-0.0061,-0.004,-0.0011,-0.0061,-0.0063,-0.0061,-0.0062,0.001,0.0016,0.0017,0.0075,0.0079,0.0052,0.0055,0.0057,0.0058,0,0,0,0,0,0,0,-0.0098,-0.0095,-0.0063,-0.0066,-0.0066,-0.0077,-0.0075,-0.0035,-0.0023,-0.0062,-0.0063,-0.0062,0.0011,0.0013,0.002,0.0081,0.0052,0.0056,0.0058,0.006,0.0257,0.026,0,0,0,0,0,0,-0.0097,-0.0095,-0.0063,-0.0063,-0.0083,-0.0076,-0.0073,-0.0062,-0.0025,-0.0021,-0.0062,-0.0063,0.0006,0.0015,0.0023,0.0164,0.0057,0.006,0.0063,0.0254,0.0257,0.0261,0,0,0,0,0,0,-0.0098,-0.0094,-0.0063,-0.008,-0.0077,-0.0075,-0.0062,-0.0062,-0.0038,-0.0026,-0.002,-0.0036,0.0006,0.0017,0.0087,0.0164,0.0062,0.0066,0.0251,0.0255,0.0259,0.0382,0,0,0,0,0,0,-0.0099,-0.0094,-0.0074,-0.0079,-0.0076,-0.0047,-0.0062,-0.0062,-0.0039,-0.0039,-0.0001,0.0005,0.0007,0.0081,0.0091,0.0168,0.0069,0.0247,0.0253,0.0258,0.0374,0.039,0.0403,0,0,0,0,0,-0.01,-0.0075,-0.0072,-0.0068,-0.0051,-0.0047,-0.0045,-0.0046,-0.0037,-0.0024,0.0013,0.0005,0.0122,0.0087,0.0098,0.0178,0.0245,0.0251,0.0257,0.0368,0.0387,0.0403,0,0,0,0,0,0,-0.0077,-0.0073,-0.007,-0.0042,-0.0039,-0.0047,-0.003,-0.0027,0.0011,0.003,0.0039,0.0049,0.0135,0.0139,0.01,0.0248,0.0184,0.0193,0.0264,0.0282,0.0296,0.032,0.0073,0,0,0,0,0,-0.0064,-0.0042,-0.0047,-0.0019,-0.0017,-0.0016,-0.0007,-0.0001,0.0022,0.0038,0.0075,0.012,0.0167,0.0208,0.0239,0.0328,0.0299,0.0386,0.0401,0.0413,0.044,0.0462,0.048,0.0281,0.0281,0.0281,0,0,-0.0055,-0.0039,-0.0032,-0.0012,-0.0008,0.0019,-0.001,0.0016,0.0057,0.0047,0.0137,0.0167,0.0196,0.0288,0.0329,0.0307,0.0446,0.0421,0.0431,0.0452,0.047,0.0489,0.0506,0.0285,0.0285,0.0284,0,0,-0.0026,-0.0003,0.0015,0.0029,0.005,0.0063,0.0077,0.0099,0.0122,0.0201,0.021,0.0291,0.0363,0.041,0.0437,0.0552,0.0509,0.0569,0.0684,0.0705,0.0721,0.0736,0.0684,0.0693,0.0593,0.0593,0.0593,0,-0.0018,0.0019,0.0021,0.0051,0.0079,0.009,0.0127,0.0154,0.0208,0.0246,0.0247,0.0389,0.0424,0.0535,0.0596,0.0589,0.0567,0.0615,0.0723,0.0737,0.075,0.0693,0.0701,0.06,0.0599,0.0598,0.0597,0,0.0028,0.0057,0.0074,0.0124,0.016,0.0194,0.0231,0.0287,0.0336,0.0369,0.0484,0.0539,0.063,0.0661,0.0681,0.0806,0.0746,0.0723,0.0677,0.0777,0.0711,0.0717,0.0609,0.0607,0.0605,0.0603,0,0,0.0043,0.0088,0.0101,0.0132,0.0206,0.024,0.0325,0.0395,0.0467,0.054,0.0643,0.0757,0.08,0.0837,0.0871,0.0924,0.0998,0.0895,0.0893,0.0839,0.1,0.0896,0.0891,0.0999,0.1002,0.1004,0.0903,0,0.0074,0.013,0.0167,0.0251,0.0279,0.0339,0.0418,0.0498,0.0574,0.0681,0.0748,0.0855,0.0857,0.0937,0.0995,0.1007,0.1028,0.1025,0.0917,0.0913,0.0806,0.0902,0.1014,0.0907,0.0908,0.0909,0.091,0,0.0119,0.0149,0.0217,0.0305,0.0329,0.0407,0.0555,0.0626,0.0755,0.0816,0.0932,0.0979,0.1107,0.1085,0.1131,0.1132,0.1095,0.1072,0.1067,0.0941,0.0824,0.0797,0.092,0.0919,0.0918,0.0918,0.0917,0,0.0129,0.0201,0.0261,0.0292,0.0389,0.0464,0.0549,0.068,0.0757,0.0922,0.0999,0.1112,0.1186,0.119,0.114,0.1168,0.1123,0.1134,0.0974,0.0961,0.1024,0.1011,0.1144,0.1144,0.1144,0.1145,0.1145,0,0.0156,0.0205,0.0275,0.0306,0.0411,0.0496,0.0641,0.0725,0.0879,0.0979,0.1083,0.1161,0.1228,0.1201,0.1158,0.1058,0.1115,0.1014,0.0957,0.107,0.1064,0.1025,0.1012,0.1141,0.1142,0.1142,0.1143,0,0.0162,0.0194,0.0258,0.0362,0.0408,0.05,0.0678,0.077,0.0909,0.105,0.1109,0.1218,0.1214,0.1163,0.1137,0.1057,0.0975,0.0896,0.0959,0.09,0.0801,0.0796,0.0796,0.0792,0.0789,0.0786,0.0784,0,0.0156,0.019,0.0291,0.0326,0.0382,0.0521,0.0607,0.0775,0.0866,0.1051,0.1097,0.1162,0.1204,0.1052,0.1019,0.0879,0.0848,0.0763,0.089,0.0835,0.0779,0.0779,0.0779,0.0779,0.0778,0.0777,0.0776,0,0.0142,0.0192,0.0234,0.0308,0.0396,0.0496,0.063,0.0705,0.0888,0.1011,0.1099,0.1108,0.1079,0.1036,0.0883,0.0788,0.0829,0.073,0.074,0.0859,0.0814,0.0761,0.0765,0.0765,0.0766,0.0767,0.0768,0,0.0125,0.0149,0.02,0.0282,0.0358,0.0433,0.0537,0.0656,0.0775,0.0989,0.0997,0.1042,0.1105,0.098,0.0841,0.0743,0.0779,0.0743,0.0753,0.0765,0.0795,0.0736,0.0638,0,0,0,0,0,0.0098,0.0115,0.0166,0.0233,0.0313,0.037,0.0515,0.062,0.0801,0.0852,0.0945,0.0926,0.0869,0.086,0.0753,0.0774,0.0722,0.0638,0.0673,0.0702,0.0715,0.0749,0,0,0,0,0,0,0.0061,0.0099,0.0134,0.0176,0.0219,0.0313,0.0404,0.0537,0.0585,0.076,0.0731,0.0839,0.0769,0.0912,0.0727,0.0712,0.0705,0.0652,0.0648,0.0694,0.0706,0.0717,0.0757,0,0,0,0,0]},{"header":{"parameterUnit":"m.s-1","parameterCategory":2,"la1":30.2991,"la2":30.254,"lo1":-89.0895,"lo2":-89.0444,"dx":0.0017,"dy":0.0017,"nx":28,"ny":28,"refTime":"2022-12-03T09:00:00:Z","depth":"4","parameterNumber":3,"parameterNumberName":"V-component_of_CURRENTS"},"data":[0,0,0,0,0,0,0,0,0,0,0,0,0,0,0,0,0,0,0,0,0,0,0,0,0,0,0,0,0,0,0,0,0,0,0,0,0,0,0,0,0,0,0,0,0,0,0,0,0,0,0,0,0,0,0,0,0,0,0.0533,0.0533,0,0.051,0.051,0.051,0.0532,0.0533,0.0534,0.0535,0.0539,0.0538,0.0537,0,0,0,0,0,0,0,0,0,0,0,0,0,0.0528,0.0528,0.0533,0.0533,0.0532,0.051,0.051,0.0509,0.0532,0.0533,0.0534,0.0535,0.0539,0.0538,0.0537,0,0,0,0,0,0,0,0,0,0,0,0,0,0.0519,0.0528,0.0533,0.0542,0.0543,0.051,0.051,0.0509,0.0532,0.0533,0.0535,0.0536,0.054,0.0538,0.0537,0.0499,0,0,0.0533,0.0533,0,0,0,0,0,0,0,0,0.0519,0.0519,0.0541,0.0541,0.0542,0.0527,0.051,0.0508,0.0531,0.0534,0.0535,0.0537,0.0537,0.0536,0.0526,0.0499,0.0499,0.0533,0.0532,0.0532,0.0531,0,0,0,0,0,0,0,0.052,0.0519,0.0522,0.0541,0.0541,0.0524,0.0525,0.0509,0.0527,0.0534,0.0536,0.0535,0.0538,0.0527,0.0526,0.0499,0.0533,0.0532,0.0531,0.0531,0.0446,0.0445,0,0,0,0,0,0,0.0528,0.052,0.0523,0.0522,0.0536,0.0524,0.0524,0.0529,0.0526,0.0528,0.0534,0.0536,0.0529,0.0528,0.0527,0.054,0.0532,0.0531,0.053,0.0448,0.0446,0.0445,0,0,0,0,0,0,0.0528,0.0528,0.0524,0.0521,0.052,0.0523,0.0527,0.0528,0.0548,0.0526,0.0528,0.0558,0.053,0.0529,0.0525,0.0539,0.053,0.0529,0.045,0.0447,0.0445,0.053,0,0,0,0,0,0,0.0528,0.0528,0.0542,0.0522,0.0521,0.0517,0.0526,0.0526,0.0544,0.0548,0.0546,0.0547,0.0531,0.0527,0.0524,0.0537,0.0528,0.0452,0.0449,0.0446,0.0529,0.0531,0.0532,0,0,0,0,0,0.0527,0.0537,0.0543,0.0544,0.0537,0.0518,0.0515,0.052,0.0544,0.0546,0.0546,0.0548,0.0506,0.0526,0.0522,0.0535,0.0453,0.045,0.0446,0.0528,0.053,0.0532,0,0,0,0,0,0,0.0558,0.054,0.0546,0.0556,0.0545,0.0523,0.0536,0.0536,0.0537,0.0555,0.0541,0.0539,0.0533,0.0511,0.0532,0.0493,0.0475,0.0471,0.0538,0.054,0.0542,0.0571,0.0527,0,0,0,0,0,0.0567,0.0577,0.0548,0.0571,0.0563,0.0556,0.0556,0.0555,0.0549,0.0553,0.0555,0.0539,0.0507,0.0511,0.0478,0.0473,0.0415,0.0469,0.0471,0.0473,0.0488,0.0384,0.0379,0.0434,0.0434,0.0434,0,0,0.0592,0.0588,0.0596,0.0579,0.058,0.0577,0.0561,0.0569,0.0571,0.0552,0.0576,0.0549,0.0501,0.0487,0.0483,0.0483,0.0423,0.0469,0.0472,0.0486,0.038,0.0375,0.0371,0.0431,0.0432,0.0432,0,0,0.0634,0.0639,0.0647,0.0636,0.063,0.0617,0.0626,0.0612,0.0607,0.0609,0.0584,0.0566,0.0548,0.0508,0.0484,0.047,0.0427,0.0463,0.0516,0.0416,0.0411,0.0407,0.0324,0.0311,0.0475,0.0476,0.0476,0,0.0661,0.0672,0.0649,0.0652,0.0663,0.0643,0.0656,0.0633,0.0625,0.0615,0.0629,0.0573,0.0549,0.0501,0.051,0.0479,0.0423,0.0525,0.0422,0.0416,0.041,0.0326,0.0311,0.0479,0.0479,0.0478,0.0478,0,0.0699,0.0708,0.0719,0.0721,0.0725,0.0736,0.0702,0.07,0.0708,0.0683,0.065,0.0606,0.0581,0.0557,0.0548,0.0491,0.0466,0.0431,0.043,0.041,0.0322,0.0305,0.0485,0.0483,0.0482,0.0481,0,0,0.0738,0.074,0.0745,0.0761,0.0763,0.077,0.0768,0.0741,0.0739,0.0716,0.0708,0.0654,0.0646,0.0616,0.0579,0.0512,0.0432,0.0485,0.0478,0.0427,0.0225,0.0259,0.0243,0.0388,0.0386,0.0384,0.0181,0,0.0772,0.0793,0.0792,0.0836,0.0841,0.0832,0.0829,0.0808,0.0789,0.0769,0.0695,0.0675,0.0656,0.0662,0.0591,0.0462,0.0392,0.0491,0.0231,0.0223,0.0275,0.0226,0.0376,0.0168,0.0164,0.0161,0.0159,0,0.0795,0.0807,0.0849,0.0875,0.088,0.0919,0.093,0.0918,0.0858,0.0841,0.0807,0.0754,0.0671,0.0658,0.0435,0.0504,0.0393,0.0286,0.0274,0.0271,0.0226,0.0186,0.0127,0.013,0.0132,0.0134,0.0136,0,0.0814,0.0847,0.0895,0.0907,0.0925,0.0964,0.0987,0.0956,0.0939,0.09,0.0886,0.0777,0.0719,0.0559,0.0373,0.0404,0.0107,0.0101,0.0014,0.0014,0.0011,0.0018,-0.0059,-0.0059,-0.0058,-0.0058,-0.0057,0,0.0829,0.086,0.0922,0.0937,0.1001,0.1019,0.1067,0.1051,0.1036,0.1002,0.0944,0.087,0.0693,0.0511,0.0359,0.0131,0.0081,0.0018,-0.0039,0.0049,0.0062,-0.0001,0.0008,-0.0065,-0.0064,-0.0062,-0.0061,0,0.0825,0.0857,0.0905,0.0968,0.1006,0.1059,0.1134,0.1137,0.1123,0.1082,0.1074,0.0917,0.0681,0.0478,0.0185,0.0103,-0.0118,-0.0185,-0.0076,-0.0124,-0.0135,-0.0119,-0.0293,-0.0293,-0.0294,-0.0294,-0.0295,0,0.081,0.0846,0.0936,0.0977,0.1026,0.1113,0.115,0.1183,0.117,0.1074,0.1024,0.0834,0.0706,0.0307,0.0111,-0.0182,-0.0203,-0.0285,-0.0185,-0.0122,-0.0161,-0.0145,-0.0129,-0.0295,-0.0296,-0.0296,-0.0296,0,0.0786,0.0843,0.087,0.0964,0.1046,0.1121,0.1178,0.1175,0.1162,0.115,0.0976,0.0812,0.0546,0.0286,0.0072,-0.0141,-0.021,-0.029,-0.0289,-0.0196,-0.0128,-0.0162,-0.0146,-0.0297,-0.0297,-0.0297,-0.0297,0,0.0761,0.0775,0.0832,0.0933,0.1013,0.1081,0.1141,0.1123,0.1122,0.1029,0.0949,0.0711,0.0576,0.0298,0.007,-0.0098,-0.0114,-0.0116,-0.0124,-0.0125,0.0012,0.013,-0.0018,0,0,0,0,0,0.0726,0.0732,0.0796,0.0883,0.0978,0.1052,0.1105,0.1148,0.1132,0.1021,0.1003,0.0762,0.0472,0.031,0.0145,0.0064,-0.0147,-0.0129,-0.0154,-0.0307,-0.0305,-0.0166,0,0,0,0,0,0,0.0669,0.0705,0.0752,0.0843,0.0909,0.1016,0.1061,0.1086,0.1014,0.0974,0.0793,0.0756,0.0434,0.0555,0.0144,0.0091,0.0068,-0.0268,-0.027,-0.0308,-0.0306,-0.0304,-0.0161,0,0,0,0,0]}]]